www.pogodaiklimat.ru

Архив погоды во Вроцлаве (Польша)

Время
(UTC), дата
16 21.05
17 21.05
18 21.05
19 21.05
20 21.05
21 21.05
22 21.05
23 21.05
00 22.05
01 22.05
02 22.05
03 22.05
04 22.05
05 22.05
06 22.05
07 22.05
08 22.05
09 22.05
10 22.05
11 22.05
12 22.05
13 22.05
14 22.05
15 22.05
16 22.05
17 22.05
18 22.05
19 22.05
20 22.05
21 22.05
22 22.05
23 22.05
00 23.05
01 23.05
02 23.05
03 23.05
04 23.05
05 23.05
06 23.05
07 23.05
08 23.05
09 23.05
10 23.05
11 23.05
12 23.05
13 23.05
14 23.05
15 23.05
16 23.05
17 23.05
18 23.05
19 23.05
20 23.05
21 23.05
22 23.05
23 23.05
00 24.05
01 24.05
02 24.05
03 24.05
04 24.05
05 24.05
06 24.05
07 24.05
08 24.05
09 24.05
10 24.05
11 24.05
12 24.05
13 24.05
14 24.05
15 24.05
16 24.05
17 24.05
18 24.05
19 24.05
20 24.05
21 24.05
22 24.05
23 24.05
00 25.05
01 25.05
02 25.05
03 25.05
04 25.05
05 25.05
06 25.05
07 25.05
08 25.05
09 25.05
10 25.05
11 25.05
12 25.05
13 25.05
14 25.05
15 25.05
16 25.05
17 25.05
18 25.05
19 25.05
20 25.05
21 25.05
22 25.05
23 25.05
00 26.05
01 26.05
02 26.05
03 26.05
04 26.05
05 26.05
06 26.05
07 26.05
08 26.05
09 26.05
10 26.05
11 26.05
12 26.05
13 26.05
14 26.05
15 26.05
16 26.05
17 26.05
18 26.05
19 26.05
20 26.05
21 26.05
22 26.05
23 26.05
00 27.05
01 27.05
02 27.05
03 27.05
04 27.05
05 27.05
06 27.05
07 27.05
08 27.05
09 27.05
10 27.05
11 27.05
12 27.05
13 27.05
14 27.05
15 27.05
16 27.05
17 27.05
18 27.05
19 27.05
20 27.05
21 27.05
22 27.05
23 27.05
00 28.05
01 28.05
02 28.05
03 28.05
04 28.05
05 28.05
06 28.05
07 28.05
08 28.05
09 28.05
10 28.05
11 28.05
12 28.05
13 28.05
14 28.05
15 28.05
16 28.05
17 28.05
Ветер
(напр.,м/с)
Видим. Явления Облачность Т
(С)
Тd
(С)
f
(%)
Тe
(С)
Тes
(С)
Комфортность P
(гПа)
Po
(гПа)
Тmin
(С)
Tmax
(С)
R
(мм)
R24
(мм)
S
(см)
Ю 4 40 км 9/1 2000 м
[Cu med, cong Ac cuf Cs]
+24.0 +12.9 50 +26 +27 жарко 1009.1 995.1
ЮВ 2 35 км 10/0
[Ac As]
+23.5 +14.5 57 +26 +27 жарко 1008.8 994.8
В 2 {15} 35 км 9/0
[Ac As]
+22.8 +14.4 59 +26 +26 жарко 1008.6 994.6 +17.6 +27.9
В 1 35 км 9/0
[Ac As]
+22.0 +14.4 62 +25 +25 комфорт 1008.6 994.5
СВ 2 30 км 9/0
[Ac As]
+22.6 +14.9 62 +26 +26 жарко 1008.2 994.2
СВ 3 35 км 9/0
[Ac As]
+22.4 +15.0 63 +26 +26 жарко 1007.9 993.9
В 4 40 км 9/0
[Ac As]
+22.5 +13.0 55 +25 +25 комфорт 1007.7 993.7
В 5 40 км 9/0
[Ac As]
+21.8 +12.4 55 +24 +24 комфорт 1007.6 993.5
В 6 45 км 8/0
[Ac As]
+21.0 +12.7 59 +23 +23 комфорт 1007.3 993.2
В 3 50 км 5/0
[Ac trans Ci fib]
+18.9 +12.6 67 +20 +20 тепло 1007.1 992.9
В 3 50 км 4/0
[Ac trans Ci fib]
+18.7 +12.9 69 +20 +20 тепло 1006.9 992.7
В 4 50 км 4/0
[Ac trans Ci fib]
+18.6 +13.0 70 +19 +19 тепло 1007.0 992.8
В 4 50 км 4/0
[Ac trans Ci fib]
+18.0 +13.5 75 +18 +18 тепло 1007.1 992.9
ЮВ 5 50 км 6/0
[Ac trans]
+19.2 +14.2 73 +20 +21 тепло 1007.2 993.0
ЮВ 4 50 км 9/0
[Ac trans]
+20.0 +15.0 73 +22 +24 комфорт 1007.3 993.2 +17.2 +23.3
Ю 4 50 км 9/0
[Ac trans]
+20.8 +14.0 65 +24 +26 комфорт 1007.6 993.5
Ю 5 50 км 9/1 600 м
[Sc Ac trans]
+20.7 +14.3 67 +23 +26 комфорт 1008.2 994.1
Ю 5 50 км 9/3 600 м
[Sc Ac trans]
+21.6 +14.3 63 +25 +27 комфорт 1008.5 994.4
Ю 5 50 км 9/3 1000 м
[Cu hum Ac trans Cs]
+21.6 +13.8 61 +24 +28 комфорт 1008.5 994.4
Ю 5 50 км в посл. час ливневой дождь 9/6 1000 м
[Cu Sc Cs]
+23.1 +14.4 58 +27 +30 душно 1008.3 994.3
Ю 6 50 км {ливн. дождь} 8/5 1000 м
[Cu Sc Ac trans Ci fib]
+23.6 +13.5 53 +26 +28 жарко 1007.9 993.9 0.0
ЮЗ 6 50 км 9/4 1000 м
[Cu hum Ac trans]
+24.0 +13.2 51 +26 +28 жарко 1007.8 993.8
ЮЗ 6 50 км 8/3 1000 м
[Cu hum Ac trans Ci fib]
+23.6 +13.2 52 +26 +28 жарко 1007.7 993.7
ЮЗ 6 50 км 8/1 1500 м
[Sc diur, vesp Ac trans Cs]
+23.1 +12.1 50 +26 +27 жарко 1007.9 993.9
ЮЗ 5 50 км 9/1 1500 м
[Sc diur, vesp Ac inh Cs]
+23.1 +12.1 50 +26 +27 жарко 1007.9 993.9
З 5 50 км 9/9 1000 м
[Sc]
+21.5 +12.3 56 +24 +24 комфорт 1008.4 994.3
З 4 50 км 9/5 1000 м
[Sc Ac As]
+19.9 +13.1 65 +22 +22 комфорт 1009.2 995.0 +19.9 +24.5 0.0
З 4 50 км 9/9 1000 м
[Sc]
+18.8 +12.5 67 +20 +20 тепло 1010.2 996.0
З 5 {9} 50 км 9/9 1000 м
[Sc]
+18.2 +12.0 67 +18 +18 тепло 1010.6 996.3
З 5-10 {10} 50 км 9/9 600 м
[Cb cap]
+17.4 +11.9 70 +17 +17 тепло 1010.7 996.4
З 3 {10} 50 км 9/9 1000 м
[Cb cap]
+16.9 +12.0 73 +17 +17 тепло 1011.4 997.0
З 4 50 км 9/5 1500 м
[Sc Ac As]
+16.6 +11.7 73 +16 +16 тепло 1011.5 997.1
З 4 {10} 50 км 9/8 600 м
[Sc Ac trans]
+16.2 +11.6 74 +15 +15 тепло 1011.6 997.2
З 4 50 км 9/9 600 м
[Sc]
+16.2 +11.8 75 +15 +15 тепло 1011.9 997.5
З 4 50 км 9/6 600 м
[Sc Ac trans]
+15.8 +11.8 77 +15 +15 тепло 1012.3 997.9
З 2 50 км 9/4 1000 м
[Sc Ac trans]
+15.3 +11.7 79 +15 +15 тепло 1012.5 998.1
З 3 50 км 9/6 1000 м
[Sc Ac trans]
+15.7 +12.1 79 +15 +15 тепло 1012.9 998.5
З 4 50 км 6/6 1500 м
[Sc]
+16.0 +12.4 79 +15 +16 тепло 1013.2 998.8
З 5 50 км 9/9 600 м
[Cu Sc]
+17.8 +13.1 74 +17 +18 тепло 1013.7 999.4 +15.2 +19.9 0.0
З 6 50 км 9/9 600 м
[Cu Sc]
+19.0 +12.7 67 +20 +20 тепло 1014.0 999.7
З 6 50 км 9/9 600 м
[Cu Sc]
+19.4 +11.9 62 +20 +21 тепло 1014.3 1000.0
З 6 40 км осадки на расстоянии 9/9 600 м
[Cb calv]
+18.7 +12.0 65 +19 +19 тепло 1014.9 1000.6
З 4 40 км 9/9 600 м
[Cb calv]
+19.0 +12.5 66 +20 +21 тепло 1015.0 1000.7
З 3 40 км 9/6 600 м
[Cb calv Ac trans]
+20.7 +13.2 62 +23 +27 комфорт 1015.2 1001.0
СЗ 2 40 км 9/6 1000 м
[Cu med, cong Ac trans]
+22.2 +11.9 52 +25 +28 комфорт 1014.9 1000.8
СЗ 2 40 км 9/5 1000 м
[Cu med, cong Ac trans]
+22.0 +12.3 54 +24 +28 комфорт 1015.0 1000.8
ЮВ 1 40 км 9/4 1000 м
[Cu med, cong Ac trans]
+21.7 +12.5 56 +24 +28 комфорт 1015.1 1000.9
Ю 3 50 км 9/9 1500 м
[Cu med, cong]
+21.5 +12.9 58 +24 +25 комфорт 1015.3 1001.1
ЮВ 3 40 км 9/9 1500 м
[Cu med, cong]
+20.5 +12.7 61 +23 +23 комфорт 1015.4 1001.2
В 1 40 км 9/9 1000 м
[Cb cap]
+20.2 +12.4 61 +23 +23 комфорт 1016.0 1001.7
С 2 50 км осадки на расстоянии 9/9 1000 м
[Cb cap]
+18.1 +13.8 76 +19 +19 тепло 1016.6 1002.2 +17.8 +22.7
С 2 40 км 9/9 1000 м
[Cb cap]
+17.7 +14.0 79 +18 +18 тепло 1017.1 1002.7
В 1 40 км 9/6 1500 м
[Sc Ac trans]
+17.7 +12.6 72 +19 +19 тепло 1017.4 1003.0
штиль 0 40 км 9/0
[Ac trans Cs]
+16.4 +13.1 81 +16 +16 тепло 1017.7 1003.2
С 1 40 км 8/0
[Ac trans Cs]
+15.5 +13.0 85 +16 +16 тепло 1017.9 1003.4
СЗ 1 30 км 9/0
[Ac trans]
+14.3 +13.2 93 +15 +15 тепло 1018.1 1003.5
З 1 30 км 9/0
[Ac trans]
+13.8 +12.7 93 +14 +14 тепло 1018.3 1003.7
штиль 0 25 км 9/0
[Ac trans]
+14.2 +13.2 94 +14 +14 тепло 1018.7 1004.1
С 1 20 км 9/0
[Ac trans]
+14.6 +13.6 94 +15 +15 тепло 1018.8 1004.2
СЗ 1 15 км 9/0
[Ac trans]
+14.6 +13.3 92 +15 +15 тепло 1018.9 1004.3
С 1 15 км 9/0
[Ac trans]
+14.9 +13.3 90 +15 +16 тепло 1019.1 1004.5
С 1 20 км 8/0
[Ac trans]
+16.7 +13.8 83 +18 +19 тепло 1019.0 1004.5
СВ 2 25 км 8/0
[Ac trans Ci fib]
+17.5 +13.8 79 +18 +20 тепло 1018.9 1004.5 +13.7 +18.1
СВ 3 25 км 9/1 600 м
[Cu hum Ac trans]
+18.5 +14.4 77 +19 +22 тепло 1019.2 1004.8
В 2 30 км 9/6 600 м
[Cu med, cong Ac trans]
+19.7 +14.7 73 +22 +25 комфорт 1019.1 1004.8
СВ 2 30 км 9/4 600 м
[Cu med, cong Ac trans]
+20.9 +14.1 65 +24 +29 комфорт 1018.9 1004.6
В 1 40 км 9/5 1000 м
[Cu med, cong Ac trans]
+21.7 +14.3 63 +25 +30 комфорт 1018.6 1004.4
В 4 40 км 9/5 1000 м
[Cu med, cong Ac trans]
+22.1 +13.4 58 +25 +28 комфорт 1018.2 1004.0
СВ 3 40 км 9/4 1000 м
[Cb cap Ac cuf]
+23.4 +14.4 57 +27 +30 душно 1017.4 1003.3
СВ 5 {8} 50 км 9/6 1000 м
[Cb cap Ac trans]
+22.9 +13.4 55 +26 +28 жарко 1016.7 1002.6
В 5 12 км слаб. ливневой дождь 9/9 1000 м
[Cb cap]
+20.1 +14.5 70 +22 +23 комфорт 1017.4 1003.1
ЮЗ 1 {8} 20 км слаб. ливневой дождь 9/5 400 м
[Cb cap Ac As]
+18.8 +17.3 91 +21 +23 комфорт 1017.3 1003.0
ЮВ 3 30 км в посл. час ливневой дождь 9/4 1000 м
[Cu med, cong Ac As]
+19.6 +17.2 86 +22 +23 комфорт 1016.8 1002.5
ЮВ 3 40 км 9/4 1000 м
[Cb calv Ac trans Cs]
+19.4 +16.6 84 +22 +22 комфорт 1016.9 1002.6
ЮВ 3 {8} 40 км {ливн. дождь} 9/1 1000 м
[Cb calv Ac trans Cs]
+18.9 +16.5 86 +20 +20 тепло 1016.9 1002.6 +17.5 +23.4 0.8
В 2 12 км местами туман поземный 9/1 1000 м
[Sc Ac trans Cs]
+17.3 +16.5 95 +18 +18 тепло 1017.2 1002.8
СВ 1 15 км 9/0
[Ac trans Cs]
+18.0 +16.8 93 +19 +19 тепло 1017.7 1003.3
В 1 8000 м дымка 9/0
[Ac trans Cs]
+16.4 +15.9 97 +17 +17 тепло 1018.0 1003.5
В 1 800 м туман местами 5/0
[Ac trans Ci fib]
+16.1 +15.9 99 +17 +17 тепло 1018.0 1003.5
В 1 7000 м в посл. час туман 9/0
[Ac trans]
+15.8 +15.6 99 +16 +16 тепло 1018.4 1003.9
ЮВ 1 4500 м дымка {туман} 9/0
[Ac trans]
+15.7 +15.5 99 +16 +16 тепло 1018.4 1003.9
штиль 0 4000 м местами туман поземный 6/0
[Ac trans]
+15.7 +15.4 98 +15 +15 тепло 1018.1 1003.6
ЮВ 2 2000 м местами туман поземный 4/0
[Ac trans]
+13.0 +12.5 97 +12 +12 тепло 1018.3 1003.7
ЮВ 1 15 км местами туман поземный 3/0
[Ac trans]
+14.0 +13.8 99 +14 +14 тепло 1018.5 1003.9
ЮВ 1 20 км 1/0
[Ac trans]
+14.5 +13.7 95 +15 +15 тепло 1018.7 1004.1
ЮВ 3 40 км 1/0
[Ac trans]
+16.8 +14.6 87 +17 +18 тепло 1018.7 1004.2
Ю 3 35 км 3/1 300 м
[Cu hum Ac trans Ci fib]
+18.6 +14.3 76 +20 +23 тепло 1018.7 1004.3 +12.8 +18.9 0.8
Ю 5 40 км 5/1 600 м
[Cu hum Ac trans Ci fib]
+20.9 +14.5 67 +24 +27 комфорт 1018.7 1004.4
Ю 5 40 км 9/1 600 м
[Cu hum Ac trans Cs]
+22.0 +14.4 62 +25 +28 комфорт 1018.6 1004.4
Ю 5-10 {10} 40 км 9/3 1000 м
[Cu med, cong Cs]
+22.9 +14.7 60 +27 +31 душно 1018.7 1004.5
ЮВ 4 40 км 9/4 1000 м
[Cu med, cong Cs]
+23.8 +14.2 55 +26 +32 жарко 1018.5 1004.4
ЮВ 3 50 км 6/4 1000 м
[Cu med, cong Ci fib]
+24.0 +13.5 52 +26 +34 жарко 1018.1 1004.0
Ю 3 {10} 50 км осадки на расстоянии 5/4 1000 м
[Cb cap Ci fib]
+25.0 +12.2 45 +27 +34 жарко 1017.6 1003.6
ЮВ 5 40 км гроза без осадков 9/9 1000 м
[Cb cap]
+23.8 +12.1 48 +26 +26 жарко 1017.7 1003.6
Ю 3 {16} 40 км гроза, ливневой дождь 9/9 1000 м
[Cb cap]
+18.9 +12.2 65 +20 +21 тепло 1018.8 1004.4
СВ 1 {16} 50 км слаб. ливневой дождь, в посл. час гроза 8/5 1000 м
[Cb cap Ac cuf Ci ing]
+18.0 +14.9 82 +19 +22 тепло 1017.9 1003.5
Ю 2 50 км в посл. час ливневой дождь 8/1 1000 м
[Cb calv Ac cuf Ci ing]
+18.8 +14.9 78 +20 +23 тепло 1017.4 1003.1
ЮВ 2 50 км 6/1 1000 м
[Cb calv Cs]
+20.0 +15.4 75 +23 +24 комфорт 1017.4 1003.1
В 3 {16} 50 км {гроза, ливн. дождь} 8/1 1000 м
[Cb cap Ac cuf Ci ing]
+19.3 +14.8 75 +21 +21 комфорт 1018.1 1003.8 +17.6 +26.2 0.4
В 2 50 км 8/1 1000 м
[Cb cap Ac cuf Ci ing]
+17.3 +15.1 87 +18 +18 тепло 1018.5 1004.1
ЮВ 1 50 км 8/0
[Ac trans Ci sp]
+16.7 +15.1 90 +18 +18 тепло 1019.1 1004.6
штиль 0 40 км 6/0
[Ac trans Ci sp]
+14.5 +13.5 94 +14 +14 по сезону 1019.0 1004.4
С 1 30 км местами туман поземный 3/0
[Ac trans]
+14.2 +13.4 95 +14 +14 по сезону 1019.1 1004.5
С 1 20 км 6/0
[Ac trans]
+13.8 +12.9 94 +14 +14 тепло 1019.3 1004.7
В 2 20 км местами туман поземный 3/0
[Ac trans]
+13.0 +12.8 99 +12 +12 тепло 1019.2 1004.5
В 1 30 км местами туман поземный 4/0
[Ac trans Ci fib]
+14.0 +13.4 96 +14 +14 тепло 1018.9 1004.3
С 1 20 км местами туман поземный 5/0
[Ac trans Ci fib]
+13.7 +13.4 98 +14 +14 тепло 1019.1 1004.5
В 1 800 м туман местами 5/1 2000 м
[Sc Ac trans Ci fib]
+11.1 +10.5 96 +11 +11 по сезону 1019.3 1004.5
штиль 0 25 км в посл. час туман 8/1 2000 м
[Sc Ac trans Cs]
+13.0 +12.8 99 +12 +13 тепло 1019.5 1004.8
ЮВ 2 35 км 8/1 2000 м
[Cu med, cong Ac trans Cs]
+15.6 +14.5 93 +15 +17 тепло 1019.7 1005.2
Ю 3 30 км {туман} 5/1 2000 м
[Cu med, cong Ac trans Ci fib]
+17.7 +14.2 80 +18 +21 тепло 1020.0 1005.6 +11.0 +19.3 0.4
ЮВ 1 30 км 5/0
[Ac trans Ci fib]
+20.6 +14.9 70 +25 +31 комфорт 1019.9 1005.6
ЮВ 1 40 км 8/0
[Ac trans]
+23.2 +13.4 54 +26 +33 жарко 1019.6 1005.4
ЮВ 2 40 км 8/0
[Ac trans]
+22.6 +14.7 61 +26 +34 жарко 1019.6 1005.4
ЮВ 1 40 км 6/1 1000 м
[Cu med, cong Ac trans Ci sp]
+24.8 +13.7 50 +27 +40 жарко 1019.5 1005.4
ЮВ 5 40 км 5/3 1500 м
[Cu med, cong Ac trans Ci sp]
+26.0 +12.8 44 +28 +33 жарко 1019.6 1005.6
ЮВ 4 40 км 6/3 1500 м
[Cu med, cong Ac trans Ci sp]
+26.8 +12.4 41 +28 +34 жарко 1019.1 1005.1
ЮВ 4 40 км 9/3 1500 м
[Cb cap Ac cuf Cs]
+27.1 +10.7 36 +28 +32 жарко 1018.6 1004.6
Ю 5 40 км осадки на расстоянии 9/4 1500 м
[Cb cap Ac cuf Cs]
+25.9 +12.7 44 +28 +30 жарко 1018.6 1004.6
Ю 2 40 км в посл. час гроза 9/4 1500 м
[Cb cap Ac cuf Cs]
+25.7 +11.1 40 +27 +29 жарко 1018.6 1004.6
ЮЗ 3 40 км 9/3 1500 м
[Cb cap Ac cuf Cs]
+25.2 +13.4 48 +27 +29 жарко 1018.2 1004.2
Ю 2 40 км 9/3 1500 м
[Cb calv Ac trans Cs]
+25.1 +12.0 44 +27 +27 жарко 1018.7 1004.6
ЮВ 5 40 км {гроза} 9/1 1500 м
[Cb calv Ac cuf Cs]
+22.8 +12.4 52 +26 +26 жарко 1019.2 1005.0 +17.7 +27.7
ЮВ 5 {10} 40 км 9/0
[Ac cuf Cs]
+20.4 +11.9 58 +22 +22 комфорт 1020.0 1005.7
В 1 50 км 9/0
[Ac trans]
+19.0 +12.0 64 +21 +21 комфорт 1020.1 1005.7
В 4 {10} 50 км 5/0
[Ac trans]
+19.7 +11.5 59 +21 +21 комфорт 1020.4 1006.1
В 3 50 км 4/0
[Ac trans]
+18.5 +12.3 67 +19 +19 тепло 1020.4 1006.0
В 3 50 км 6/0
[Ac trans]
+17.6 +12.5 72 +18 +18 тепло 1020.3 1005.9
ЮВ 1 {10} 50 км 8/0
[Ac trans Ci sp]
+16.2 +12.7 80 +17 +17 тепло 1020.0 1005.5
В 1 50 км 6/0
[Ac trans Ci fib]
+15.5 +12.8 84 +16 +16 тепло 1019.7 1005.2
ЮВ 1 50 км 5/0
[Ac trans Ci fib]
+14.9 +12.8 87 +15 +15 тепло 1019.8 1005.2
В 2 40 км 5/0
[Ac trans Ci fib]
+14.0 +12.6 91 +13 +13 тепло 1019.8 1005.2
В 2 40 км 4/0
[Ac trans Ci fib]
+14.4 +13.3 93 +14 +14 тепло 1019.9 1005.3
ЮВ 2 40 км 4/0
[Ac trans Ci fib]
+16.6 +13.9 84 +17 +18 тепло 1019.9 1005.4
ЮВ 3 40 км 5/0
[Ac trans Ci fib]
+18.7 +14.0 74 +20 +23 тепло 1020.0 1005.6 +13.3 +22.8
ЮВ 3 50 км 8/0
[Ac trans Cs]
+21.7 +14.8 65 +25 +30 комфорт 1019.6 1005.4
ЮВ 3 50 км 8/1 1000 м
[Cu med, cong Ac trans Cs]
+23.5 +13.4 53 +26 +31 жарко 1019.2 1005.1
ЮВ 5 50 км 8/1 1500 м
[Cu med, cong Ac trans Cs]
+25.8 +12.3 43 +27 +32 жарко 1018.9 1004.9
Ю 4-9 {9} 50 км 6/3 1500 м
[Cb calv Cs]
+26.6 +11.5 39 +28 +35 жарко 1018.5 1004.5
Ю 5 40 км 6/4 1000 м
[Cb cap Ac cuf Ci fib]
+26.6 +9.4 34 +27 +31 жарко 1017.8 1003.8
ЮЗ 5 {13} 50 км в посл. час гроза {ливн. дождь} 9/5 1000 м
[Cb cap Ac cuf]
+21.3 +10.7 51 +23 +25 комфорт 1018.4 1004.2 0.0
ЮВ 1 50 км 9/3 1000 м
[Cb cap Ac cuf]
+23.1 +13.3 54 +26 +31 жарко 1017.7 1003.6
ЮЗ 4 50 км 9/1 1500 м
[Cu med, cong Ac cuf Cs]
+24.4 +14.8 55 +27 +31 жарко 1017.2 1003.1
ЮЗ 3 50 км 9/1 1000 м
[Cb cap Ac cuf Cs]
+23.8 +15.3 59 +27 +30 жарко 1016.8 1002.7
Ю 6 50 км 9/1 1500 м
[Sc diur, vesp Ac cuf Cs]
+24.8 +10.3 40 +26 +27 жарко 1016.0 1002.0
Ю 2 50 км 9/1 1500 м
[Sc diur, vesp Ac trans Cs]
+22.9 +11.6 49 +25 +26 комфорт 1016.1 1002.0
З 2 50 км 9/0
[Ac trans Cs]
+20.7 +14.3 67 +24 +24 комфорт 1016.5 1002.3 +18.6 +27.9 0.0
СЗ 1 50 км 9/0
[Ac trans Cs]
+19.6 +13.3 67 +22 +22 комфорт 1016.5 1002.2
СВ 1 50 км 9/0
[Ac trans Cs]
+17.1 +12.6 75 +18 +18 тепло 1016.8 1002.4
штиль 0 50 км 9/0
[Ac trans Cs]
+16.0 +12.7 81 +16 +16 тепло 1016.8 1002.3
штиль 0 40 км 6/0
[Ac trans Ci fib]
+15.1 +12.4 84 +15 +15 тепло 1016.8 1002.3
ЮВ 1 40 км 6/0
[Ac trans Ci fib]
+13.9 +12.5 91 +14 +14 тепло 1016.7 1002.1
В 1 35 км 5/0
[Ac trans Ci fib]
+14.4 +12.4 88 +15 +15 тепло 1016.2 1001.7
ЮВ 1 30 км местами туман поземный 1/0
[Ac trans]
+13.2 +12.3 94 +13 +13 тепло 1016.1 1001.5
В 1 25 км местами туман поземный 4/0
[Ac trans Ci fib]
+13.5 +12.4 93 +14 +14 тепло 1015.9 1001.3
В 2 25 км местами туман поземный 8/0
[Ac trans Cs]
+13.3 +12.5 95 +12 +12 тепло 1015.7 1001.1
В 2 25 км 6/0
[Ac trans Cs]
+14.1 +12.8 92 +14 +14 тепло 1015.5 1001.0
В 2 30 км 8/0
[Ac trans Cs]
+16.3 +13.4 83 +16 +18 тепло 1015.5 1001.1
ЮВ 3 40 км 8/0
[Ac trans Cs]
+19.1 +13.3 69 +20 +23 тепло 1015.2 1000.9 +12.8 +20.7 0.0
ЮВ 4 40 км 5/1 1000 м
[Cu hum Ac trans Ci sp]
+22.0 +13.9 60 +25 +29 комфорт 1015.0 1000.8
Ю 4 50 км 6/1 1500 м
[Cu med, cong Ac trans Ci sp]
+24.5 +11.8 45 +26 +31 жарко 1014.8 1000.8
Ю 4 50 км 8/3 1500 м
[Cu med, cong Ac As Ci sp]
+26.4 +13.5 45 +28 +33 жарко 1014.6 1000.7
ЮЗ 5 50 км 6/4 1500 м
[Cb calv Ac trans Ci sp]
+26.8 +11.7 39 +28 +32 жарко 1014.4 1000.5
Ю 7 {12} 50 км 8/4 1500 м
[Cb cap Ac trans Ci sp]
+27.8 +9.6 32 +28 +30 жарко 1013.8 999.9
ЮЗ 4 {13} 50 км гроза без осадков 9/5 1500 м
[Cb cap Ac cuf]
+24.6 +10.1 40 +26 +28 жарко 1013.8 999.8
З 7-12 {13} 1500 м сильн. гроза, ливневой дождь 10/9 360 м
[Cb cap]
+20.9 +16.1 74 +24 +24 комфорт 1015.6 1001.4
З 7-12 {35} 30 км слаб. ливневой дождь, в посл. час гроза 9/3 360 м
[Cb cap Ac cuf Ci ing]
+17.8 +15.6 87 +17 +18 тепло 1015.9 1001.5
СЗ 2 {35} 40 км в посл. час ливневой дождь {гроза} 9/4 360 м
[Cb cap Ac cuf]
+16.9 +14.9 88 +17 +19 тепло 1016.9 1002.5
З 3 9000 м слаб. ливневой дождь 9/9 420 м
[Cb cap]
+16.1 +15.0 93 +16 +16 тепло 1017.5 1003.0
СЗ 3 30 км в посл. час ливневой дождь 9/6 450 м
[Sc Ac As]
+15.3 +14.0 92 +15 +15 тепло 1017.4 1002.9
Местоположение метеостанции Вроцлав (Польша): широта 51.10 долгота 16.88 высота над уровнем моря 124 м.
В архиве по умолчанию представлена погода во Вроцлаве за последнюю неделю. Архивные данные за месяц целиком и за предыдущие месяцы, начиная с января 2011 года, Вы можете получить, выбрав интересующий диапазон дат из раскрывающегося списка и нажав кнопку "Найти!".
*Определитесь, кто Вы:
Внимание! Время в таблицах - всемирное. Для получения местного времени необходимо прибавить поправку, которая равна 1 ч.
Некоторые строки с данными для отдельных станций могут быть выделены курсивом. Это означает, что фактические данные отсутствуют по различным причинам, а приведенные значения являются расчетными модельными данными для данного пункта наблюдений.
Смотрите также архив погоды в соседних городах и на ближайших метеорологических станциях:
Партнеры нашего сайта:      
Пояснения к столбцам:
  • Ветер - указаны скорость ветра в м/с - средняя за 10 мин, порывы в срок и между сроками (в фигурных скобках) и направление, откуда дует ветер: С - северный,
  • СВ - северо-восточный, В - восточный, ЮВ - юго-восточный, Ю - южный, ЮЗ - юго-западный, З - западный, СЗ - северо-западный.
  • Видимость - горизонтальная дальность видимости в метрах или километрах. При видимости от 1 до 10 км при отсутствии осадков обычно наблюдается дымка, при ухудшении видимости до 1 км и менее - туман. В сухую погоду видимость может ухудшаться дымом, пылью или мглою.
  • Явления - указаны атмосферные явления, наблюдавшиеся в срок или в последний час перед сроком; фигурными скобками обозначены явления, наблюдавшиеся между сроками (за 1-3 часа до срока); квадратными скобками обозначены град или гололедные отложения с указанием их диаметра в мм.
  • Облачность - указаны через наклонную черту общая и нижняя облачность в баллах и высота нижней границы облаков в метрах; квадратными скобками обозначены формы облаков: Ci - перистые, Cs - перисто-слоистые, Cc - перисто-кучевые, Ac - высококучевые, As - высокослоистые, Sc - слоисто-кучевые, Ns - слоисто-дождевые, Cu - кучевые, Cb - кучево-дождевые. Подробнее классификацию облаков см. в Атласе облаков (PDF).
  • T - Температура воздуха - температура, измеренная на высоте 2 м над землей.
  • Td - Температура точки росы - температура, при понижении до которой содержащийся в воздухе водяной пар достигнет насыщения.
  • f - Относительная влажность воздуха - влажноcть воздуха, измеренная на высоте 2 м над землей.
  • Te - Эффективная температура - температура, которую ощущает одетый по сезону человек в тени. Характеристика душности погоды. При расчете учитывается влияние влажности воздуха и скорости ветра на теплоощущения человека.
  • Tes - Эффективная температура на солнце - температура, которую ощущает человек, с поправкой на солнечный нагрев. Характеристика знойности погоды. Зависит от высоты солнца над горизонтом, облачности и скорости ветра. Ночью, в пасмурную погоду, а также при ветре 12 м/с и более поправка равна нулю.
  • P - Атмосферное давление - приведенное к уровню моря атмосферное давление.
  • Po - Атмосферное давление - измеренное на уровне метеостанции атмосферное давление.
  • Tmin - Минимальная температура - минимум температуры воздуха на высоте 2 м над землей.
  • Tmax - Максимальная температура - максимум температуры воздуха на высоте 2 м над землей.
  • R - Количество осадков - Количество выпавших осадков за период времени, мм. При наведении курсора мыши на число - период времени, за который выпало указанное количество осадков.
  • R24 - Количество осадков - Количество выпавших осадков за 24 часа, мм.
  • S - Снежный покров - Высота снежного покрова, см. При наведении курсора мыши на число - состояние снежного покрова и степень покрытия местности в баллах.